Find Starlink 3953

NORAD ID: 52559 Int'l Des: 2022-051 Owner: SPXS Country: US Constellation: starlink operational
LEOCIRCULAR

当前视图

正在加载3D地球...

About Starlink 3953

Starlink 3953 (NORAD 52559) is a starlink constellation satellite (v1.5) launched May 13, 2022 by SPXS of US. It operates in LEO, CIRCULAR orbit with a mass of 297.00 kg.

即将过境

Passes for default location (London). Set your location on the main map for personalized predictions.

高度历史

Loading altitude history...

两行轨道根数

1 52559U 22051AC 26230.58335648 .00107967 00000-0 43959-2 0 9993
2 52559 53.1608 111.2786 0002061 91.7676 114.2734 15.23645073 5847
Epoch: Aug 18, 2026 • Age: 9 hours

当前状态

高度 498.0 km
远地点 / 近地点 N/A
速度 7.62 km/s
星下点 -11.50°S, 20.05°W
发射日期 May 13, 2022
运行时间 4.2 years
类型 internet

技术详情

分类 Payload
质量 297.00 kg
干质量 275.00 kg
总质量 297.00 kg
长度 0.20 m
直径 2.80 m
跨度 9.00 m
形状 Box + pan
制造商 SPXS
平台类型 Starlink
阶段状态 In Orbit
所有者/国家 SPXS/US

Most Searched